This is the latest recevied weather packets stored in our database for station/object KF7PIZ. If no packets are shown the sender has not sent any weather packets the latest 10 day(s).
| Time | Temp. | Humidity | Pressure | Rain* | Wind** | Luminosity | Snow |
|---|---|---|---|---|---|---|---|
| 1777346842 | 10° C | 55% | 1017 hPa | 0 mm | - | 0 W/m² | - |
| 1777346539 | 10° C | 53% | 1016.5 hPa | 0 mm | - | 0 W/m² | - |
| 1777346236 | 10.56° C | 52% | 1016.8 hPa | 0 mm | - | 0 W/m² | - |
| 1777345933 | 10.56° C | 52% | 1016.8 hPa | 0 mm | - | 0 W/m² | - |
| 1777345630 | 10.56° C | 51% | 1016.5 hPa | 0 mm | - | 0 W/m² | - |
| 1777345326 | 10.56° C | 51% | 1016.4 hPa | 0 mm | - | 0 W/m² | - |
| 1777345023 | 11.11° C | 48% | 1016.5 hPa | 0 mm | - | 0 W/m² | - |
| 1777344719 | 11.11° C | 46% | 1016.3 hPa | 0 mm | - | 0 W/m² | - |
| 1777344415 | 11.11° C | 44% | 1016.4 hPa | 0 mm | - | 0 W/m² | - |
| 1777344114 | 11.11° C | 44% | 1016.1 hPa | 0 mm | - | 2 W/m² | - |
| 1777343810 | 11.11° C | 43% | 1016.1 hPa | 0 mm | - | 4 W/m² | - |
| 1777343508 | 11.67° C | 42% | 1016 hPa | 0 mm | - | 6 W/m² | - |
| 1777343205 | 11.67° C | 43% | 1016.2 hPa | 0 mm | - | 8 W/m² | - |
| 1777342902 | 11.67° C | 43% | 1016.1 hPa | 0 mm | - | 12 W/m² | - |
| 1777342599 | 11.67° C | 42% | 1015.6 hPa | 0 mm | - | 17 W/m² | - |
| 1777342296 | 11.67° C | 42% | 1015.7 hPa | 0 mm | - | 24 W/m² | - |
| 1777341993 | 11.67° C | 43% | 1015.6 hPa | 0 mm | - | 29 W/m² | - |
| 1777341690 | 11.67° C | 43% | 1015.8 hPa | 0 mm | - | 33 W/m² | - |
| 1777341386 | 11.67° C | 44% | 1015.5 hPa | 0 mm | - | 31 W/m² | - |
| 1777341082 | 11.67° C | 43% | 1015.5 hPa | 0 mm | - | 26 W/m² | - |
| 1777340779 | 11.67° C | 44% | 1015.7 hPa | 0 mm | - | 26 W/m² | - |
| 1777340478 | 12.22° C | 43% | 1015.7 hPa | 0 mm | - | 26 W/m² | - |
| 1777340175 | 12.22° C | 42% | 1016 hPa | 0 mm | - | 29 W/m² | - |
| 1777339871 | 12.78° C | 41% | 1015.7 hPa | 0 mm | - | 35 W/m² | - |
| 1777339569 | 12.78° C | 38% | 1015.4 hPa | 0 mm | - | 44 W/m² | - |
* Rain latest hour (hover to see other rain measurements)
** Current wind speed in m/s (hover to see current wind gust speed)